Showing default

ION SCV-002, 47504

Orbit data source: Space-Track

ION SCV-002, 47504 is a payload satellite owned by D-ORBIT (IT) in SSO that was launched on Sun, 24 Jan 2021 UTC via an FALCON 9 launch vehicle from the Air Force Eastern Test Range (AFETR). Payload-class satellites include a variety of spacecraft equipped with specific instruments for various scientific and technological missions. These include communications satellites like Starlink; space stations such as the ISS; scientific satellites like the Hubble; Earth observation satellites from companies like Planet Labs, Umbra, and HawkEye 360; GPS; miniature CubeSats for education and research; and military/defense satellites.

Loading next visibility...
Identifier
47504, 2021-006CV
Orbit
SSO
Country
Flag of ITIT
Related business
Manufacturer
D-ORBIT
Mission
Operational Commercial Technology
Bus & Motor
ION-SC, PM200
Mass
220 kg wet, 150 kg dry
Launch date (UTC)
2021-01-24 (6 years ago)
Launch vehicle
FALCON 9
Launch site
Air Force Eastern Test Range (AFETR)
Object type
Payload
Rocket body
Debris
Shape & HBR
Box, 0.3 m
Radar Cross Section
0.240 m², Large (>1 m²)

Expand to show TLE details & history
Last TLE update: 7 hours ago

TLE from 7 hours ago
0 ION SCV-002
1 47504U 21006CV  26255.28162824  .00009560  00000-0  19785-3 0  9995
2 47504  97.1167 255.4483 0011645 148.1903 212.0053 15.45914712313477
Epoch: 2026-09-12T06:45Z
TLE epoch observation values (Epoch: 2026-09-12T06:45:32.679Z)
Latitude
-0.00001°
Longitude
162.76926°
Altitude
438.551 km
Speed
7.645 km/s
True Right ascension
17h 01m 47s
True Declination
0° 00' 00"
Sunlit
Object was in daylight at epoch
Visualization orbit readout
Latitude
Unknown
Longitude
Unknown
Altitude
Unknown
Speed
Unknown
Apparent Right ascension
Unknown
Apparent Declination
Unknown
Sunlit
N/A
Visualization observer readout
Local Sidereal Time
06:06:44
Azimuth
Unknown
Elevation
Unknown
Doppler factor
Unknown
Orbital elements
Apogee altitude
433.534 km
Perigee altitude
417.688 km
Semi-major axis
6,803.748 km
Eccentricity
0.00116
Inclination
97.1167°
RAAN
255.4483°
Arg. of periapsis
148.1903°
True anomaly
211.93466°
Mean anomaly
212.0053°
Eccentric anomaly
211.96997°
Mean motion
3.86742 °/min
Orbital period
93.09 mins
BSTAR
0.00019785
Loading maneuver chart data...
Computing Atmospheric mass density...
Loading historical data...
Loading historical data...
Loading historical data...
Loading historical data...
Loading historical data...
Loading historical data...
Loading historical data...

Documentation

Showing up to 5 results
|